www.pogodaiklimat.ru

Погода и климат >> Архив погоды >> Южная Африка >> Форт-Бофорт


ПОГОДА в Форт-Бофорте

  • Прогноз погоды в Форт-Бофорте
  • Монитор погоды в Форт-Бофорте

АРХИВ ПОГОДЫ в Форт-Бофорте

Время (UTC), дата Ветер
(напр.,м/с)
 
Видим.   Явления Облачность Т
(С)
Тd
(С)
f
(%)
Тe
(С)
Тes
(С)
Комфортность P
(гПа)
Po
(гПа)
Тmin
(С)
Tmax
(С)
R
(мм)
R24
(мм)
S
(см)
03 12.03 СЗ 2 н/о н/о +17.3 +15.8 91 +18 +18 962.1 +17.2 +29.4
06 12.03 штиль 0 н/о н/о +19.2 +17.0 87 +21 +21 комфорт 962.2 +16.3 2
09 12.03 Ю 3 н/о н/о +28.0 +18.8 57 +33 +33 очень
душно
960.6 +16.3 +28.0
12 12.03 СЗ 5 н/о н/о +33.3 +14.7 33 +35 +35 душно 958.1 +16.3 +33.3
15 12.03 СЗ 6 н/о н/о +30.5 +9.1 26 +30 +30 жарко 957.3 +30.0 +33.6
00 13.03 штиль 0 н/о н/о +18.0 +14.1 78 +18 +18 958.5 +18.0 +33.6
03 13.03 Ю 2 н/о н/о +16.3 +13.6 84 +17 +17 959.2 +15.9 +33.6
06 13.03 штиль 0 н/о н/о +20.0 +15.5 75 +22 +22 комфорт 961.0 +15.1
09 13.03 ЮВ 3 н/о н/о +28.1 +17.5 53 +32 +32 душно 961.0 +15.1 +28.3
12 13.03 ЮВ 6 н/о н/о +30.8 +15.5 40 +33 +33 душно 959.8 +15.1 +31.8
15 13.03 ЮВ 6 н/о н/о +26.7 +17.9 59 +31 +31 душно 961.6 +26.7 +31.8
18 13.03 ЮВ 5 н/о н/о +20.4 +15.4 73 +23 +23 комфорт 964.8 +20.4 +31.8
21 13.03 Ю 2 н/о н/о +18.5 +14.6 78 +20 +20 966.5 +18.5 +31.8
00 14.03 СЗ 1 н/о н/о +17.2 +14.1 82 +18 +18 966.2 +17.2 +31.8
03 14.03 СЗ 2 н/о н/о +15.8 +13.6 87 +16 +16 965.3 +15.7 +31.8
06 14.03 штиль 0 н/о н/о +18.5 +14.0 75 +19 +19 966.7 +15.3
09 14.03 Ю 2 н/о н/о +22.4 +14.6 61 +26 +26 жарко 968.0 +15.3 +22.5
12 14.03 ЮВ 3 н/о н/о +24.4 +15.4 57 +27 +27 жарко 967.1 +15.3 +25.3
15 14.03 ЮВ 4 н/о н/о +21.9 +15.3 66 +25 +25 комфорт 967.4 +21.9 +25.3
18 14.03 ЮВ 2 н/о н/о +19.4 +15.3 77 +22 +22 комфорт 967.3 +19.4 +25.3
21 14.03 ЮЗ 3 н/о н/о +18.2 +16.5 90 +19 +19 968.6 +17.4 +25.3
00 15.03 СЗ 1 н/о н/о +18.5 +17.3 93 +20 +20 968.4 +17.4 +25.3
03 15.03 З 2 н/о н/о +18.5 +16.1 86 +20 +20 965.4 +17.4 +25.3
06 15.03 Ю 3 н/о н/о +19.3 +17.4 89 +22 +22 комфорт 966.5 +17.4
09 15.03 Ю 3 н/о н/о +21.1 +17.9 82 +25 +25 комфорт 966.7 +17.4 +21.1
12 15.03 ЮВ 3 н/о н/о +28.6 +18.2 53 +33 +33 очень
душно
964.3 +17.4 +28.7
15 15.03 ЮВ 7 н/о н/о +27.2 +19.9 64 +33 +33 очень
душно
963.7 +27.2 +30.0
18 15.03 Ю 3 н/о н/о +23.1 +19.7 81 +30 +30 очень
душно
966.3 +23.1 +30.0
21 15.03 ЮЗ 2 н/о н/о +21.7 +15.6 68 +25 +25 комфорт 964.2 +21.7 +30.0
00 16.03 СЗ 2 н/о н/о +19.3 +15.8 80 +22 +22 комфорт 963.9 +19.3 +30.0
03 16.03 З 1 н/о н/о +16.4 +14.0 86 +17 +17 962.9 +16.4 +30.0
06 16.03 С 1 н/о н/о +20.8 +15.6 72 +25 +25 комфорт 963.7 +15.8
09 16.03 ЮВ 4 н/о н/о +28.7 +18.3 53 +33 +33 очень
душно
962.3 +15.8 +28.8
12 16.03 ЮВ 5 н/о н/о +32.6 +15.9 37 +35 +35 душно 959.6 +15.8 +32.9
15 16.03 В 5 н/о н/о +31.8 +16.8 41 +35 +35 очень
душно
958.1 +31.8 +33.5
18 16.03 Ю 2 н/о н/о +25.2 +19.6 71 +31 +31 очень
душно
958.5 +25.2 +33.5
21 16.03 Ю 3 н/о н/о +22.3 +19.1 82 +28 +28 душно 958.9 +22.3 +33.5
00 17.03 СЗ 2 н/о н/о +20.2 +18.0 87 +24 +24 комфорт 958.2 +20.2 +33.5
03 17.03 СЗ 1 н/о н/о +18.9 +17.2 90 +21 +21 комфорт 957.7 +18.3 +33.5
06 17.03 штиль 0 н/о н/о +20.1 +18.6 91 +23 +23 комфорт 958.6 +18.3
09 17.03 Ю 3 н/о н/о +27.7 +19.9 63 +34 +34 очень
душно
957.4 +18.3 +27.7
12 17.03 ЮВ 4 н/о н/о +33.7 +16.0 35 +36 +36 очень
душно
955.6 +18.3 +33.8
15 17.03 ЮВ 3 н/о н/о +33.2 +16.0 36 +36 +36 очень
душно
955.0 +33.2 +34.7
18 17.03 ЮВ 4 н/о н/о +26.2 +20.4 70 +32 +32 очень
душно
957.5 +26.2 +34.7
21 17.03 Ю 3 н/о н/о +22.0 +18.4 80 +27 +27 душно 959.7 +22.0 +34.7
00 18.03 Ю 2 н/о н/о +20.3 +18.2 88 +25 +25 комфорт 960.2 +20.3 +34.7
03 18.03 Ю 1 н/о н/о +20.3 +18.6 90 +25 +25 комфорт 959.7 +20.3 +34.7
12 18.03 ЮВ 3 н/о н/о +29.5 +17.9 50 +34 +34 очень
душно
958.5 +20.2 +29.6
18 18.03 Ю 4 н/о н/о +22.9 +19.3 80 +29 +29 очень
душно
960.2 +22.9 +30.5
21 18.03 Ю 2 н/о н/о +22.6 +19.6 83 +29 +29 очень
душно
960.3 +22.5 +30.5
00 19.03 Ю 1 н/о н/о +22.0 +19.4 85 +27 +27 душно 959.7 +22.0 +30.5

 

Местоположение метеостанции Форт-Бофорт (Южная Африка): широта -32.78 долгота 26.63 высота над уровнем моря 455 м.

В архиве по умолчанию представлена погода в Форт-Бофорте за последнюю неделю. Архивные данные за месяц целиком и за предыдущие месяцы, начиная с января 2011 года, Вы можете получить, выбрав интересующий диапазон дат из раскрывающегося списка и нажав кнопку "Ввод!".


*Определитесь, кто Вы:
робот инопланетянин человек

Внимание! Время в таблицах - всемирное. Для получения местного времени необходимо прибавить поправку, которая равна 2 ч.

Смотрите также архив погоды в соседних городах и на ближайших метеорологических станциях:

Погода в Грейамстауне (Южная Африка) (57 км)
Погода в Аэропорту Бишо (Южная Африка) (62 км)
Погода в Стуттерхейме (Южная Африка) (84 км)
Погода в Порт-Альфред (Южная Африка) (90 км)
Погода в Куинстаун аэропорту (Южная Африка) (100 км)
Погода в Куинстауне (Южная Африка) (100 км)
Погода в Парке Addo Elephant (Южная Африка) (110 км)
Погода в Ист-Лондоне (Южная Африка) (115 км)
Погода в Сомерсет-Ист (Южная Африка) (117 км)
Погода в Крадоке (Южная Африка) (117 км)

Пояснения к столбцам:

Ветер - указаны скорость ветра в м/с - средняя за 10 мин, порывы в срок и между сроками (в фигурных скобках) и направление, откуда дует ветер: С - северный, СВ - северо-восточный, В - восточный, ЮВ - юго-восточный, Ю - южный, ЮЗ - юго-западный, З - западный, СЗ - северо-западный.
Видимость - горизонтальная дальность видимости в метрах или километрах. При видимости от 1 до 10 км при отсутствии осадков обычно наблюдается дымка, при ухудшении видимости до 1 км и менее - туман. В сухую погоду видимость может ухудшаться дымом, пылью или мглою.
Явления - указаны атмосферные явления, наблюдавшиеся в срок или в последний час перед сроком; фигурными скобками обозначены явления, наблюдавшиеся между сроками (за 1-3 часа до срока); квадратными скобками обозначены град или гололедные отложения с указанием их диаметра в мм.
Облачность - указаны через наклонную черту общая и нижняя облачность в баллах и высота нижней границы облаков в метрах; квадратными скобками обозначены формы облаков: Ci - перистые, Cs - перисто-слоистые, Cc - перисто-кучевые, Ac - высококучевые, As - высокослоистые, Sc - слоисто-кучевые, Ns - слоисто-дождевые, Cu - кучевые, Cb - кучево-дождевые. Подробнее классификацию облаков см. в Атласе облаков (PDF).
T - Температура воздуха - температура, измеренная на высоте 2 м над землей.
Td - Температура точки росы - температура, при понижении до которой содержащийся в воздухе водяной пар достигнет насыщения.
f - Относительная влажность воздуха - влажноcть воздуха, измеренная на высоте 2 м над землей.
Te - Эффективная температура - температура, которую ощущает одетый по сезону человек в тени. Характеристика душности погоды. При расчете учитывается влияние влажности воздуха и скорости ветра на теплоощущения человека.
Tes - Эффективная температура на солнце - температура, которую ощущает человек, с поправкой на солнечный нагрев. Характеристика знойности погоды. Зависит от высоты солнца над горизонтом, облачности и скорости ветра. Ночью, в пасмурную погоду, а также при ветре 12 м/с и более поправка равна нулю.
P - Атмосферное давление - приведенное к уровню моря атмосферное давление.
Po - Атмосферное давление - измеренное на уровне метеостанции атмосферное давление.
Tmin - Минимальная температура - минимум температуры воздуха на высоте 2 м над землей.
Tmax - Максимальная температура - максимум температуры воздуха на высоте 2 м над землей.
R - Количество осадков - Количество выпавших осадков за период времени, мм. При наведении курсора мыши на число - период времени, за который выпало указанное количество осадков.
R24 - Количество осадков - Количество выпавших осадков за 24 часа, мм.
S - Снежный покров - Высота снежного покрова, см. При наведении курсора мыши на число - состояние снежного покрова и степень покрытия местности в баллах.